| time (UTC) | temp C | wind direction | speed KPH | gust KPH | rain 1hr cm | rain 24hr cm | rain mn cm | humidity % | barometer mb |
| 20260906172455 | 33 | 86 | 9.7 | 16.1 | 0.00 | 0.00 | 0.00 | 67 | 1015.1 |
| 20260906171946 | 33 | 115 | 9.7 | 16.1 | 0.00 | 0.00 | 0.00 | 69 | 1015.1 |
| 20260906171435 | 33 | 105 | 9.7 | 17.7 | 0.00 | 0.00 | 0.00 | 67 | 1015.3 |
| 20260906170928 | 32 | 94 | 9.7 | 17.7 | 0.00 | 0.00 | 0.00 | 71 | 1015.3 |
| 20260906170422 | 32 | 140 | 9.7 | 17.7 | 0.00 | 0.00 | 0.00 | 68 | 1015.3 |
| 20260906165913 | 32 | 115 | 9.7 | 17.7 | 0.00 | 0.00 | 0.00 | 70 | 1015.4 |
| 20260906165404 | 32 | 76 | 8.0 | 17.7 | 0.00 | 0.00 | 0.00 | 72 | 1015.5 |
| 20260906164907 | 32 | 121 | 8.0 | 17.7 | 0.00 | 0.00 | 0.00 | 75 | 1015.5 |
| 20260906163904 | 31 | 75 | 11.3 | 17.7 | 0.00 | 0.00 | 0.00 | 75 | 1015.5 |
| 20260906163404 | 31 | 78 | 11.3 | 17.7 | 0.00 | 0.00 | 0.00 | 75 | 1015.5 |
| 20260906162902 | 31 | 89 | 9.7 | 17.7 | 0.00 | 0.00 | 0.00 | 75 | 1015.6 |
| 20260906162404 | 31 | 90 | 9.7 | 17.7 | 0.00 | 0.00 | 0.00 | 75 | 1015.6 |
| 20260906161855 | 31 | 92 | 9.7 | 17.7 | 0.00 | 0.00 | 0.00 | 77 | 1015.6 |
| 20260906161341 | 31 | 68 | 9.7 | 14.5 | 0.00 | 0.00 | 0.00 | 77 | 1015.7 |
| 20260906160321 | 30 | 80 | 9.7 | 17.7 | 0.00 | 0.00 | 0.00 | 79 | 1015.7 |
| 20260906160059 | 30 | 115 | 9.7 | 17.7 | 0.00 | 0.00 | 0.00 | 78 | 1013.4 |
| 20260906155306 | 30 | 109 | 11.3 | 16.1 | 0.00 | 0.00 | 0.00 | 78 | 1015.5 |
| 20260906154751 | 30 | 68 | 9.7 | 16.1 | 0.00 | 0.00 | 0.00 | 79 | 1015.6 |
| 20260906154529 | 30 | 84 | 9.7 | 16.1 | 0.00 | 0.00 | 0.00 | 80 | 1013.2 |
| 20260906154242 | 30 | 72 | 9.7 | 17.7 | 0.00 | 0.00 | 0.00 | 80 | 1015.6 |
| 20260906153731 | 30 | 109 | 9.7 | 17.7 | 0.00 | 0.00 | 0.00 | 80 | 1015.6 |
| 20260906153221 | 29 | 102 | 9.7 | 16.1 | 0.00 | 0.00 | 0.00 | 81 | 1015.5 |
| 20260906152207 | 29 | 82 | 8.0 | 12.9 | 0.00 | 0.00 | 0.00 | 82 | 1015.6 |
| 20260906151502 | 28 | 90 | 8.0 | 12.9 | 0.00 | 0.00 | 0.00 | 83 | 1013.2 |
| 20260906151143 | 28 | 126 | 9.7 | 16.1 | 0.00 | 0.00 | 0.00 | 83 | 1015.4 |
| 20260906150637 | 28 | 76 | 11.3 | 17.7 | 0.00 | 0.00 | 0.00 | 84 | 1015.4 |
| 20260906150135 | 28 | 94 | 11.3 | 17.7 | 0.00 | 0.00 | 0.00 | 84 | 1015.4 |
| 20260906145132 | 28 | 90 | 9.7 | 16.1 | 0.00 | 0.00 | 0.00 | 85 | 1015.5 |
| 20260906144634 | 27 | 109 | 9.7 | 16.1 | 0.00 | 0.00 | 0.00 | 86 | 1015.6 |
| 20260906144132 | 27 | 67 | 11.3 | 16.1 | 0.00 | 0.00 | 0.00 | 86 | 1015.7 |
| 20260906143634 | 27 | 107 | 9.7 | 16.1 | 0.00 | 0.00 | 0.00 | 87 | 1015.7 |
| 20260906143126 | 27 | 102 | 8.0 | 14.5 | 0.00 | 0.00 | 0.00 | 87 | 1015.7 |
| 20260906142616 | 27 | 78 | 8.0 | 12.9 | 0.00 | 0.00 | 0.00 | 89 | 1015.7 |
| 20260906141551 | 26 | 76 | 8.0 | 14.5 | 0.00 | 0.00 | 0.00 | 89 | 1015.8 |
| 20260906141044 | 26 | 101 | 8.0 | 12.9 | 0.00 | 0.00 | 0.00 | 89 | 1015.8 |
| 20260906140532 | 26 | 75 | 8.0 | 17.7 | 0.00 | 0.00 | 0.00 | 89 | 1015.8 |
| 20260906140022 | 26 | 88 | 9.7 | 17.7 | 0.00 | 0.00 | 0.00 | 89 | 1015.8 |
| 20260906135510 | 26 | 73 | 11.3 | 19.3 | 0.00 | 0.00 | 0.00 | 90 | 1015.8 |
| 20260906135005 | 26 | 75 | 11.3 | 19.3 | 0.00 | 0.00 | 0.00 | 90 | 1015.8 |
| 20260906133941 | 26 | 80 | 11.3 | 14.5 | 0.00 | 0.00 | 0.00 | 91 | 1015.7 |
| 20260906133436 | 25 | 88 | 9.7 | 17.7 | 0.00 | 0.00 | 0.00 | 92 | 1015.6 |
| 20260906132927 | 25 | 69 | 9.7 | 14.5 | 0.00 | 0.00 | 0.00 | 92 | 1015.6 |
| 20260906132424 | 25 | 88 | 8.0 | 17.7 | 0.00 | 0.00 | 0.00 | 93 | 1015.6 |
| 20260906131912 | 25 | 62 | 8.0 | 17.7 | 0.00 | 0.00 | 0.00 | 93 | 1015.5 |
| 20260906131649 | 25 | 90 | 4.8 | 12.9 | 0.00 | 0.00 | 0.00 | 93 | 1013.3 |
| 20260906131400 | 25 | 78 | 8.0 | 14.5 | 0.00 | 0.00 | 0.00 | 93 | 1015.4 |
| 20260906130849 | 25 | 89 | 8.0 | 14.5 | 0.00 | 0.00 | 0.00 | 93 | 1015.4 |
| 20260906130339 | 25 | 86 | 8.0 | 12.9 | 0.00 | 0.00 | 0.00 | 94 | 1015.4 |
| 20260906130133 | 24 | 81 | 4.8 | 12.9 | 0.00 | 0.00 | 0.00 | 94 | 1013.1 |
| 20260906125833 | 24 | 76 | 8.0 | 11.3 | 0.00 | 0.00 | 0.00 | 94 | 1015.4 |
| 20260906124833 | 24 | 76 | 8.0 | 14.5 | 0.00 | 0.00 | 0.00 | 94 | 1015.2 |
| 20260906124611 | 23 | 77 | 6.4 | 14.5 | 0.00 | 0.00 | 0.00 | 94 | 1013.0 |
| 20260906124330 | 24 | 64 | 6.4 | 14.5 | 0.00 | 0.00 | 0.00 | 94 | 1015.3 |
| 20260906123330 | 23 | 76 | 4.8 | 12.9 | 0.00 | 0.00 | 0.00 | 94 | 1015.2 |
| 20260906123110 | 23 | 92 | 6.4 | 12.9 | 0.00 | 0.00 | 0.00 | 94 | 1012.9 |
| 20260906122842 | 23 | 78 | 3.2 | 11.3 | 0.00 | 0.00 | 0.00 | 94 | 1015.1 |
| 20260906122330 | 23 | 77 | 3.2 | 11.3 | 0.00 | 0.00 | 0.00 | 94 | 1015.1 |
| 20260906121828 | 23 | 64 | 4.8 | 9.7 | 0.00 | 0.00 | 0.00 | 94 | 1015.0 |
| 20260906121616 | 23 | 61 | 1.6 | 9.7 | 0.00 | 0.00 | 0.00 | 93 | 1012.8 |
| 20260906121333 | 23 | 57 | 4.8 | 9.7 | 0.00 | 0.00 | 0.00 | 93 | 1015.0 |
| 20260906120324 | 23 | 65 | 3.2 | 9.7 | 0.00 | 0.00 | 0.00 | 93 | 1014.9 |
| 20260906120122 | 23 | 86 | 0.0 | 8.0 | 0.00 | 0.00 | 0.00 | 93 | 1012.6 |
| 20260906114815 | 23 | 88 | 4.8 | 9.7 | 0.00 | 0.00 | 0.00 | 93 | 1014.6 |
| 20260906114547 | 23 | 76 | 3.2 | 9.7 | 0.00 | 0.00 | 0.00 | 93 | 1012.5 |
| 20260906114317 | 23 | 77 | 4.8 | 9.7 | 0.00 | 0.00 | 0.00 | 93 | 1014.6 |
| 20260906113815 | 23 | 79 | 4.8 | 9.7 | 0.00 | 0.00 | 0.00 | 93 | 1014.6 |
| 20260906113326 | 23 | 74 | 3.2 | 9.7 | 0.00 | 0.00 | 0.00 | 92 | 1014.6 |
| 20260906113039 | 23 | 82 | 3.2 | 8.0 | 0.00 | 0.00 | 0.00 | 92 | 1012.5 |
| 20260906112811 | 23 | 81 | 3.2 | 8.0 | 0.00 | 0.00 | 0.00 | 92 | 1014.6 |
| 20260906112320 | 23 | 88 | 1.6 | 8.0 | 0.00 | 0.00 | 0.00 | 92 | 1014.5 |
| 20260906111806 | 23 | 88 | 1.6 | 6.4 | 0.00 | 0.00 | 0.00 | 92 | 1014.4 |
| 20260906111545 | 23 | 88 | 0.0 | 6.4 | 0.00 | 0.00 | 0.00 | 92 | 1012.3 |
| 20260906111316 | 23 | 88 | 1.6 | 6.4 | 0.00 | 0.00 | 0.00 | 92 | 1014.4 |
| 20260906110802 | 23 | 88 | 3.2 | 9.7 | 0.00 | 0.00 | 0.00 | 92 | 1014.2 |
| 20260906110300 | 23 | 88 | 3.2 | 9.7 | 0.00 | 0.00 | 0.00 | 92 | 1014.2 |
| 20260906110045 | 23 | 88 | 3.2 | 9.7 | 0.00 | 0.00 | 0.00 | 92 | 1012.0 |
| 20260906105804 | 23 | 99 | 4.8 | 9.7 | 0.00 | 0.00 | 0.00 | 92 | 1014.1 |
| 20260906105257 | 23 | 78 | 4.8 | 11.3 | 0.00 | 0.00 | 0.00 | 92 | 1014.1 |
| 20260906104742 | 23 | 78 | 3.2 | 11.3 | 0.00 | 0.00 | 0.00 | 92 | 1014.1 |
| 20260906104512 | 23 | 79 | 3.2 | 9.7 | 0.00 | 0.00 | 0.00 | 92 | 1011.9 |
| 20260906103719 | 23 | 84 | 1.6 | 8.0 | 0.00 | 0.00 | 0.00 | 91 | 1014.0 |
| 20260906103212 | 23 | 75 | 1.6 | 8.0 | 0.00 | 0.00 | 0.00 | 91 | 1014.0 |
| 20260906102701 | 23 | 75 | 1.6 | 8.0 | 0.00 | 0.00 | 0.00 | 91 | 1014.0 |
| 20260906102153 | 23 | 75 | 3.2 | 9.7 | 0.00 | 0.00 | 0.00 | 91 | 1014.0 |
| 20260906101643 | 23 | 67 | 3.2 | 9.7 | 0.00 | 0.00 | 0.00 | 91 | 1014.0 |
| 20260906101138 | 23 | 74 | 3.2 | 8.0 | 0.00 | 0.00 | 0.00 | 90 | 1014.0 |
| 20260906100626 | 23 | 75 | 3.2 | 8.0 | 0.00 | 0.00 | 0.00 | 90 | 1014.0 |
| 20260906100110 | 23 | 75 | 3.2 | 9.7 | 0.00 | 0.00 | 0.00 | 90 | 1013.9 |
| 20260906095046 | 24 | 71 | 3.2 | 9.7 | 0.00 | 0.00 | 0.00 | 90 | 1014.0 |
| 20260906094024 | 24 | 86 | 4.8 | 9.7 | 0.00 | 0.00 | 0.00 | 90 | 1013.9 |
| 20260906093510 | 24 | 78 | 4.8 | 9.7 | 0.00 | 0.00 | 0.00 | 90 | 1013.9 |
| 20260906093001 | 24 | 78 | 4.8 | 9.7 | 0.00 | 0.00 | 0.00 | 90 | 1013.9 |
| 20260906091946 | 24 | 86 | 4.8 | 9.7 | 0.00 | 0.00 | 0.00 | 89 | 1013.8 |
| 20260906091437 | 24 | 78 | 4.8 | 11.3 | 0.00 | 0.00 | 0.00 | 89 | 1013.7 |
| 20260906090933 | 24 | 81 | 4.8 | 11.3 | 0.00 | 0.00 | 0.00 | 89 | 1013.7 |
| 20260906090430 | 24 | 73 | 4.8 | 11.3 | 0.00 | 0.00 | 0.00 | 89 | 1013.7 |
| 20260906084856 | 24 | 79 | 6.4 | 9.7 | 0.00 | 0.00 | 0.00 | 88 | 1013.6 |
| 20260906084354 | 24 | 78 | 4.8 | 9.7 | 0.00 | 0.00 | 0.00 | 88 | 1013.6 |
| 20260906083841 | 24 | 81 | 4.8 | 11.3 | 0.00 | 0.00 | 0.00 | 88 | 1013.6 |
| 20260906083332 | 24 | 82 | 6.4 | 11.3 | 0.00 | 0.00 | 0.00 | 87 | 1013.6 |
| 20260906082820 | 24 | 69 | 4.8 | 11.3 | 0.00 | 0.00 | 0.00 | 87 | 1013.6 |
| 20260906082313 | 24 | 76 | 4.8 | 9.7 | 0.00 | 0.00 | 0.00 | 87 | 1013.5 |
| 20260906081257 | 24 | 77 | 4.8 | 11.3 | 0.00 | 0.00 | 0.00 | 87 | 1013.5 |
| 20260906080752 | 24 | 64 | 4.8 | 11.3 | 0.00 | 0.00 | 0.00 | 87 | 1013.6 |
| 20260906080238 | 25 | 67 | 4.8 | 11.3 | 0.00 | 0.00 | 0.00 | 86 | 1013.6 |
| 20260906080155 | 24 | 67 | 4.8 | 11.3 | 0.00 | 0.00 | 0.00 | 86 | 1011.4 |
| 20260906075727 | 25 | 71 | 4.8 | 11.3 | 0.00 | 0.00 | 0.00 | 86 | 1013.5 |
| 20260906075218 | 25 | 77 | 4.8 | 11.3 | 0.00 | 0.00 | 0.00 | 86 | 1013.5 |
| 20260906074649 | 24 | 69 | 3.2 | 11.3 | 0.00 | 0.00 | 0.00 | 86 | 1011.2 |
| 20260906074159 | 25 | 63 | 4.8 | 11.3 | 0.00 | 0.00 | 0.00 | 86 | 1013.5 |
| 20260906073148 | 25 | 54 | 6.4 | 11.3 | 0.00 | 0.00 | 0.00 | 85 | 1013.4 |
| 20260906073144 | 24 | 64 | 4.8 | 11.3 | 0.00 | 0.00 | 0.00 | 85 | 1011.2 |
| 20260906072639 | 25 | 68 | 6.4 | 12.9 | 0.00 | 0.00 | 0.00 | 85 | 1013.4 |
| 20260906072128 | 25 | 67 | 6.4 | 12.9 | 0.00 | 0.00 | 0.00 | 85 | 1013.5 |
| 20260906071620 | 24 | 66 | 6.4 | 12.9 | 0.00 | 0.00 | 0.00 | 85 | 1011.3 |
| 20260906071111 | 25 | 74 | 6.4 | 12.9 | 0.00 | 0.00 | 0.00 | 85 | 1013.5 |
| 20260906070602 | 25 | 82 | 6.4 | 11.3 | 0.00 | 0.00 | 0.00 | 85 | 1013.5 |
| 20260906070104 | 25 | 70 | 4.8 | 9.7 | 0.00 | 0.00 | 0.00 | 84 | 1013.6 |
| 20260906070049 | 24 | 70 | 4.8 | 9.7 | 0.00 | 0.00 | 0.00 | 84 | 1011.5 |
| 20260906065031 | 25 | 71 | 4.8 | 11.3 | 0.00 | 0.00 | 0.00 | 84 | 1013.7 |
| 20260906064525 | 25 | 69 | 4.8 | 9.7 | 0.00 | 0.00 | 0.00 | 84 | 1013.8 |
| 20260906063509 | 25 | 80 | 3.2 | 9.7 | 0.00 | 0.00 | 0.00 | 83 | 1013.9 |
| 20260906063001 | 25 | 64 | 4.8 | 9.7 | 0.00 | 0.00 | 0.00 | 83 | 1013.8 |
| 20260906062452 | 25 | 51 | 4.8 | 9.7 | 0.00 | 0.00 | 0.00 | 83 | 1013.9 |
| 20260906061438 | 25 | 66 | 8.0 | 14.5 | 0.00 | 0.00 | 0.00 | 83 | 1014.0 |
| 20260906060926 | 25 | 55 | 6.4 | 14.5 | 0.00 | 0.00 | 0.00 | 83 | 1014.0 |
| 20260906060417 | 25 | 51 | 4.8 | 9.7 | 0.00 | 0.00 | 0.00 | 83 | 1014.1 |
| 20260906055857 | 25 | 57 | 3.2 | 8.0 | 0.00 | 0.00 | 0.00 | 83 | 1014.1 |
| 20260906055347 | 25 | 58 | 3.2 | 8.0 | 0.00 | 0.00 | 0.00 | 83 | 1014.1 |
| 20260906054838 | 25 | 67 | 1.6 | 6.4 | 0.00 | 0.00 | 0.00 | 83 | 1014.1 |
| 20260906053819 | 25 | 67 | 1.6 | 6.4 | 0.00 | 0.00 | 0.00 | 82 | 1014.1 |
| 20260906053304 | 25 | 67 | 0.0 | 6.4 | 0.00 | 0.00 | 0.00 | 82 | 1014.0 |
| 20260906052756 | 25 | 67 | 1.6 | 6.4 | 0.00 | 0.00 | 0.00 | 82 | 1014.0 |
| 20260906052250 | 25 | 67 | 1.6 | 6.4 | 0.00 | 0.00 | 0.00 | 82 | 1014.0 |
| 20260906051754 | 25 | 67 | 1.6 | 6.4 | 0.00 | 0.00 | 0.00 | 82 | 1014.0 |
| 20260906051245 | 25 | 68 | 1.6 | 6.4 | 0.00 | 0.00 | 0.00 | 82 | 1014.0 |
| 20260906050724 | 25 | 68 | 1.6 | 6.4 | 0.00 | 0.00 | 0.00 | 81 | 1013.9 |
| 20260906050217 | 26 | 68 | 1.6 | 6.4 | 0.00 | 0.00 | 0.00 | 81 | 1013.9 |
| 20260906045706 | 26 | 84 | 1.6 | 3.2 | 0.00 | 0.00 | 0.00 | 81 | 1013.9 |
| 20260906044648 | 26 | 84 | 3.2 | 8.0 | 0.00 | 0.00 | 0.00 | 81 | 1013.9 |
| 20260906044133 | 26 | 84 | 1.6 | 8.0 | 0.00 | 0.00 | 0.00 | 81 | 1013.9 |
| 20260906043121 | 26 | 84 | 0.0 | 6.4 | 0.00 | 0.00 | 0.00 | 81 | 1013.8 |
| 20260906042608 | 26 | 84 | 0.0 | 6.4 | 0.00 | 0.00 | 0.00 | 81 | 1013.8 |
| 20260906042114 | 26 | 84 | 1.6 | 6.4 | 0.00 | 0.00 | 0.00 | 81 | 1013.8 |
| 20260906041041 | 26 | 84 | 1.6 | 8.0 | 0.00 | 0.00 | 0.00 | 81 | 1013.7 |
| 20260906040523 | 26 | 84 | 3.2 | 8.0 | 0.00 | 0.00 | 0.00 | 81 | 1013.6 |
| 20260906040012 | 26 | 69 | 3.2 | 8.0 | 0.00 | 0.00 | 0.00 | 81 | 1013.6 |
| 20260906035502 | 26 | 69 | 3.2 | 9.7 | 0.00 | 0.00 | 0.00 | 81 | 1013.6 |
| 20260906034958 | 26 | 82 | 3.2 | 9.7 | 0.00 | 0.00 | 0.00 | 80 | 1013.5 |
| 20260906034444 | 26 | 82 | 3.2 | 8.0 | 0.00 | 0.00 | 0.00 | 80 | 1013.4 |
| 20260906033936 | 26 | 74 | 3.2 | 9.7 | 0.00 | 0.00 | 0.00 | 80 | 1013.3 |
| 20260906033436 | 26 | 83 | 3.2 | 8.0 | 0.00 | 0.00 | 0.00 | 80 | 1013.2 |
| 20260906033157 | 26 | 77 | 3.2 | 8.0 | 0.00 | 0.00 | 0.00 | 80 | 1011.1 |
| 20260906032409 | 26 | 90 | 1.6 | 9.7 | 0.00 | 0.00 | 0.00 | 79 | 1013.3 |
| 20260906031904 | 27 | 71 | 0.0 | 1.6 | 0.00 | 0.00 | 0.00 | 79 | 1013.2 |
| 20260906031649 | 26 | 72 | 0.0 | 1.6 | 0.00 | 0.00 | 0.00 | 79 | 1011.1 |
| 20260906031340 | 27 | 71 | 0.0 | 1.6 | 0.00 | 0.00 | 0.00 | 79 | 1013.3 |
| 20260906030831 | 27 | 72 | 0.0 | 6.4 | 0.00 | 0.00 | 0.00 | 79 | 1013.3 |
| 20260906030319 | 27 | 71 | 0.0 | 6.4 | 0.00 | 0.00 | 0.00 | 79 | 1013.3 |
| 20260906030136 | 27 | 72 | 0.0 | 6.4 | 0.00 | 0.00 | 0.00 | 79 | 1011.1 |
| 20260906025808 | 27 | 72 | 1.6 | 8.0 | 0.00 | 0.00 | 0.00 | 78 | 1013.1 |
| 20260906025259 | 27 | 71 | 3.2 | 8.0 | 0.00 | 0.00 | 0.00 | 78 | 1013.0 |
| 20260906024640 | 27 | 83 | 1.6 | 8.0 | 0.00 | 0.00 | 0.00 | 78 | 1010.8 |
| 20260906024235 | 27 | 83 | 3.2 | 8.0 | 0.00 | 0.00 | 0.00 | 78 | 1012.9 |
| 20260906023736 | 27 | 83 | 3.2 | 8.0 | 0.00 | 0.00 | 0.00 | 78 | 1012.8 |
| 20260906023214 | 27 | 84 | 4.8 | 8.0 | 0.00 | 0.00 | 0.00 | 77 | 1012.7 |
| 20260906023051 | 27 | 84 | 3.2 | 8.0 | 0.00 | 0.00 | 0.00 | 77 | 1010.6 |
| 20260906022703 | 27 | 78 | 4.8 | 8.0 | 0.00 | 0.00 | 0.00 | 77 | 1012.6 |
| 20260906022158 | 28 | 78 | 4.8 | 8.0 | 0.00 | 0.00 | 0.00 | 77 | 1012.6 |
| 20260906021643 | 28 | 84 | 4.8 | 8.0 | 0.00 | 0.00 | 0.00 | 76 | 1012.5 |
| 20260906021526 | 27 | 84 | 3.2 | 8.0 | 0.00 | 0.00 | 0.00 | 76 | 1010.3 |
| 20260906021142 | 28 | 76 | 6.4 | 9.7 | 0.00 | 0.00 | 0.00 | 76 | 1012.4 |
| 20260906020635 | 28 | 93 | 4.8 | 9.7 | 0.00 | 0.00 | 0.00 | 76 | 1012.4 |
| 20260906015621 | 28 | 83 | 4.8 | 8.0 | 0.00 | 0.00 | 0.00 | 75 | 1012.3 |
| 20260906015124 | 28 | 83 | 3.2 | 8.0 | 0.00 | 0.00 | 0.00 | 74 | 1012.3 |
| 20260906014619 | 28 | 83 | 1.6 | 8.0 | 0.00 | 0.00 | 0.00 | 74 | 1012.3 |
| 20260906014117 | 28 | 92 | 3.2 | 8.0 | 0.00 | 0.00 | 0.00 | 74 | 1012.1 |
| 20260906013112 | 29 | 101 | 0.0 | 6.4 | 0.00 | 0.00 | 0.00 | 73 | 1012.0 |
| 20260906012605 | 29 | 101 | 0.0 | 6.4 | 0.00 | 0.00 | 0.00 | 73 | 1012.0 |
| 20260906012056 | 29 | 101 | 1.6 | 6.4 | 0.00 | 0.00 | 0.00 | 73 | 1012.0 |
| 20260906011044 | 29 | 102 | 4.8 | 8.0 | 0.00 | 0.00 | 0.00 | 73 | 1011.9 |
| 20260906010024 | 30 | 98 | 1.6 | 6.4 | 0.00 | 0.00 | 0.00 | 70 | 1012.0 |
| 20260906005007 | 31 | 83 | 0.0 | 3.2 | 0.00 | 0.00 | 0.00 | 68 | 1011.9 |
| 20260906004500 | 31 | 83 | 0.0 | 3.2 | 0.00 | 0.00 | 0.00 | 67 | 1011.9 |
| 20260906003953 | 31 | 83 | 0.0 | 6.4 | 0.00 | 0.00 | 0.00 | 66 | 1011.9 |
| 20260906003441 | 31 | 83 | 1.6 | 6.4 | 0.00 | 0.00 | 0.00 | 66 | 1011.9 |
| 20260906002934 | 31 | 83 | 3.2 | 6.4 | 0.00 | 0.00 | 0.00 | 65 | 1012.0 |
| 20260906002426 | 32 | 82 | 3.2 | 8.0 | 0.00 | 0.00 | 0.00 | 64 | 1012.0 |
| 20260906001917 | 32 | 81 | 3.2 | 8.0 | 0.00 | 0.00 | 0.00 | 63 | 1011.9 |
| 20260906001406 | 32 | 69 | 4.8 | 11.3 | 0.00 | 0.00 | 0.00 | 63 | 1012.0 |
| 20260906000858 | 32 | 69 | 4.8 | 11.3 | 0.00 | 0.00 | 0.00 | 63 | 1012.0 |
| 20260906000351 | 32 | 64 | 6.4 | 12.9 | 0.00 | 0.00 | 0.00 | 61 | 1012.0 |
| 20260906000145 | 32 | 58 | 4.8 | 12.9 | 0.00 | 0.00 | 0.00 | 61 | 1009.7 |
| 20260905235846 | 32 | 53 | 8.0 | 14.5 | 0.00 | 0.00 | 0.00 | 60 | 1012.0 |
| 20260905235339 | 33 | 65 | 8.0 | 14.5 | 0.00 | 0.00 | 0.00 | 60 | 1011.9 |
| 20260905234827 | 33 | 58 | 8.0 | 16.1 | 0.00 | 0.00 | 0.00 | 60 | 1012.0 |
| 20260905234622 | 33 | 61 | 4.8 | 16.1 | 0.00 | 0.00 | 0.00 | 59 | 1009.7 |
| 20260905234319 | 33 | 58 | 9.7 | 16.1 | 0.00 | 0.00 | 0.00 | 57 | 1011.9 |
| 20260905233817 | 33 | 56 | 6.4 | 14.5 | 0.00 | 0.00 | 0.00 | 57 | 1011.9 |
| 20260905233307 | 34 | 64 | 4.8 | 11.3 | 0.00 | 0.00 | 0.00 | 57 | 1011.9 |
| 20260905233103 | 34 | 84 | 3.2 | 11.3 | 0.00 | 0.00 | 0.00 | 58 | 1009.7 |
| 20260905232758 | 34 | 76 | 6.4 | 11.3 | 0.00 | 0.00 | 0.00 | 56 | 1011.9 |
| 20260905232253 | 34 | 87 | 8.0 | 11.3 | 0.00 | 0.00 | 0.00 | 55 | 1011.8 |
| 20260905231744 | 34 | 76 | 6.4 | 11.3 | 0.00 | 0.00 | 0.00 | 55 | 1011.8 |
| 20260905231541 | 34 | 85 | 6.4 | 11.3 | 0.00 | 0.00 | 0.00 | 55 | 1009.4 |
| 20260905231240 | 34 | 84 | 1.6 | 9.7 | 0.00 | 0.00 | 0.00 | 56 | 1011.7 |
| 20260905230223 | 34 | 101 | 0.0 | 1.6 | 0.00 | 0.00 | 0.00 | 63 | 1011.8 |
| 20260905230038 | 34 | 101 | 0.0 | 1.6 | 0.00 | 0.00 | 0.00 | 61 | 1009.5 |
| 20260905225709 | 34 | 101 | 0.0 | 3.2 | 0.00 | 0.00 | 0.00 | 57 | 1011.7 |
| 20260905225210 | 34 | 101 | 0.0 | 3.2 | 0.00 | 0.00 | 0.00 | 55 | 1011.7 |
| 20260905224659 | 34 | 101 | 0.0 | 3.2 | 0.00 | 0.00 | 0.00 | 56 | 1011.6 |
| 20260905224533 | 34 | 101 | 0.0 | 1.6 | 0.00 | 0.00 | 0.00 | 54 | 1009.3 |
| 20260905224152 | 34 | 101 | 1.6 | 3.2 | 0.00 | 0.00 | 0.00 | 53 | 1011.6 |
| 20260905223644 | 35 | 101 | 1.6 | 6.4 | 0.00 | 0.00 | 0.00 | 53 | 1011.6 |
| 20260905223021 | 34 | 101 | 1.6 | 6.4 | 0.00 | 0.00 | 0.00 | 52 | 1009.3 |
| 20260905222626 | 35 | 101 | 1.6 | 6.4 | 0.00 | 0.00 | 0.00 | 52 | 1011.4 |
| 20260905222116 | 35 | 101 | 1.6 | 6.4 | 0.00 | 0.00 | 0.00 | 53 | 1011.4 |
| 20260905221608 | 35 | 101 | 4.8 | 9.7 | 0.00 | 0.00 | 0.00 | 49 | 1011.4 |
| 20260905221059 | 35 | 115 | 8.0 | 14.5 | 0.00 | 0.00 | 0.00 | 49 | 1011.4 |
| 20260905220556 | 35 | 140 | 9.7 | 14.5 | 0.00 | 0.00 | 0.00 | 49 | 1011.4 |
| 20260905220053 | 36 | 119 | 8.0 | 12.9 | 0.00 | 0.00 | 0.00 | 48 | 1011.4 |
| 20260905215532 | 36 | 126 | 4.8 | 12.9 | 0.00 | 0.00 | 0.00 | 47 | 1011.4 |
| 20260905215025 | 36 | 121 | 1.6 | 9.7 | 0.00 | 0.00 | 0.00 | 46 | 1011.6 |
| 20260905214011 | 36 | 115 | 1.6 | 11.3 | 0.00 | 0.00 | 0.00 | 46 | 1011.7 |
| 20260905213503 | 36 | 101 | 1.6 | 6.4 | 0.00 | 0.00 | 0.00 | 45 | 1011.7 |
| 20260905212958 | 36 | 99 | 1.6 | 6.4 | 0.00 | 0.00 | 0.00 | 46 | 1011.7 |
| 20260905212449 | 36 | 99 | 3.2 | 9.7 | 0.00 | 0.00 | 0.00 | 47 | 1011.8 |
| 20260905211429 | 36 | 112 | 8.0 | 14.5 | 0.00 | 0.00 | 0.00 | 47 | 1011.9 |
| 20260905210919 | 36 | 126 | 6.4 | 14.5 | 0.00 | 0.00 | 0.00 | 46 | 1012.0 |
| 20260905205900 | 36 | 96 | 8.0 | 16.1 | 0.00 | 0.00 | 0.00 | 44 | 1012.2 |
| 20260905205350 | 36 | 107 | 4.8 | 16.1 | 0.00 | 0.00 | 0.00 | 47 | 1012.3 |
| 20260905204841 | 36 | 119 | 4.8 | 12.9 | 0.00 | 0.00 | 0.00 | 46 | 1012.4 |
| 20260905204343 | 36 | 65 | 4.8 | 12.9 | 0.00 | 0.00 | 0.00 | 45 | 1012.6 |
| 20260905203825 | 36 | 90 | 4.8 | 11.3 | 0.00 | 0.00 | 0.00 | 45 | 1012.7 |
| 20260905203311 | 36 | 90 | 8.0 | 11.3 | 0.00 | 0.00 | 0.00 | 43 | 1012.7 |
| 20260905203151 | 36 | 90 | 6.4 | 12.9 | 0.00 | 0.00 | 0.00 | 46 | 1010.5 |
| 20260905202804 | 36 | 106 | 4.8 | 12.9 | 0.00 | 0.00 | 0.00 | 45 | 1012.8 |
| 20260905202255 | 36 | 96 | 4.8 | 12.9 | 0.00 | 0.00 | 0.00 | 44 | 1012.9 |
| 20260905201240 | 36 | 26 | 4.8 | 9.7 | 0.00 | 0.00 | 0.00 | 46 | 1012.9 |
| 20260905200730 | 36 | 85 | 4.8 | 9.7 | 0.00 | 0.00 | 0.00 | 47 | 1012.9 |
| 20260905200221 | 36 | 90 | 3.2 | 9.7 | 0.00 | 0.00 | 0.00 | 48 | 1013.0 |
| 20260905200130 | 35 | 32 | 0.0 | 9.7 | 0.00 | 0.00 | 0.00 | 47 | 1010.9 |
| 20260905195710 | 36 | 32 | 3.2 | 11.3 | 0.00 | 0.00 | 0.00 | 45 | 1013.0 |
| 20260905195200 | 36 | 51 | 3.2 | 11.3 | 0.00 | 0.00 | 0.00 | 46 | 1013.0 |
| 20260905194652 | 36 | 53 | 3.2 | 9.7 | 0.00 | 0.00 | 0.00 | 47 | 1013.1 |
| 20260905194536 | 36 | 53 | 4.8 | 9.7 | 0.00 | 0.00 | 0.00 | 47 | 1010.9 |
| 20260905194144 | 36 | 121 | 3.2 | 9.7 | 0.00 | 0.00 | 0.00 | 47 | 1013.1 |
| 20260905193636 | 36 | 103 | 6.4 | 12.9 | 0.00 | 0.00 | 0.00 | 47 | 1013.2 |
| 20260905193126 | 36 | 104 | 6.4 | 12.9 | 0.00 | 0.00 | 0.00 | 46 | 1013.3 |
| 20260905193016 | 36 | 83 | 6.4 | 12.9 | 0.00 | 0.00 | 0.00 | 47 | 1011.1 |
| 20260905192111 | 36 | 111 | 8.0 | 14.5 | 0.00 | 0.00 | 0.00 | 48 | 1013.5 |
| 20260905191050 | 36 | 37 | 3.2 | 12.9 | 0.00 | 0.00 | 0.00 | 49 | 1013.5 |
| 20260905190541 | 36 | 13 | 3.2 | 11.3 | 0.00 | 0.00 | 0.00 | 50 | 1013.5 |
| 20260905190036 | 36 | 291 | 4.8 | 12.9 | 0.00 | 0.00 | 0.00 | 48 | 1013.7 |
| 20260905185523 | 36 | 281 | 6.4 | 12.9 | 0.00 | 0.00 | 0.00 | 47 | 1013.7 |
| 20260905185015 | 36 | 49 | 3.2 | 12.9 | 0.00 | 0.00 | 0.00 | 48 | 1013.8 |
| 20260905184510 | 36 | 70 | 3.2 | 9.7 | 0.00 | 0.00 | 0.00 | 49 | 1013.8 |
| 20260905183447 | 35 | 68 | 3.2 | 9.7 | 0.00 | 0.00 | 0.00 | 49 | 1013.9 |
| 20260905182431 | 35 | 26 | 4.8 | 11.3 | 0.00 | 0.00 | 0.00 | 47 | 1014.0 |
| 20260905181923 | 36 | 53 | 1.6 | 9.7 | 0.00 | 0.00 | 0.00 | 47 | 1014.1 |
| 20260905181412 | 36 | 95 | 0.0 | 3.2 | 0.00 | 0.00 | 0.00 | 47 | 1014.1 |
| 20260905180903 | 36 | 173 | 0.0 | 6.4 | 0.00 | 0.00 | 0.00 | 46 | 1014.1 |
| 20260905175848 | 35 | 173 | 1.6 | 6.4 | 0.00 | 0.00 | 0.00 | 51 | 1014.2 |
| 20260905175339 | 35 | 165 | 1.6 | 8.0 | 0.00 | 0.00 | 0.00 | 53 | 1014.2 |
| 20260905174321 | 35 | 194 | 1.6 | 8.0 | 0.00 | 0.00 | 0.00 | 52 | 1014.3 |
| 20260905173815 | 35 | 200 | 3.2 | 9.7 | 0.00 | 0.00 | 0.00 | 54 | 1014.3 |
| 20260905173308 | 35 | 220 | 1.6 | 6.4 | 0.00 | 0.00 | 0.00 | 54 | 1014.3 |
| 20260905173147 | 35 | 224 | 0.0 | 6.4 | 0.00 | 0.00 | 0.00 | 52 | 1012.2 |
| 20260905172758 | 35 | 192 | 1.6 | 8.0 | 0.00 | 0.00 | 0.00 | 52 | 1014.3 |